Regional Weather Roundup
Issued by NWS

Home | Current Version | Previous Version | Graphics & Text | Print | Product List | Glossary On
Versions: 1 2 3 4 5 6 7 8 9 10 11 12 13 14 15 16 17 18 19 20 21 22 23 24 25 26 27 28 29 30 31 32 33 34 35 36 37 38 39 40 41 42 43 44 45 46 47 48 49 50
000
ASUS43 KFSD 141002
RWRSD

WEATHER ROUNDUP FOR SOUTH DAKOTA
NATIONAL WEATHER SERVICE SIOUX FALLS SD
500 AM CDT MON JUL 14 2014

NOTE: "FAIR" INDICATES FEW OR NO CLOUDS BELOW 12,000 FEET WITH NO
SIGNIFICANT WEATHER AND/OR OBSTRUCTIONS TO VISIBILITY.


SDZ001>005-009-010-012>017-141100-
NORTHWEST AND NORTH CENTRAL SOUTH DAKOTA

CITY           SKY/WX    TMP DP  RH WIND       PRES   REMARKS
BUFFALO          N/A     50  41  71 N14       30.19R
FAITH            N/A     50  44  80 NW8       30.20R
MOBRIDGE       CLEAR     51  48  89 N8        30.13R
$$

SDZ012>016-024>037-041>051-057-063-072>074-141100-
SOUTHWEST AND SOUTH CENTRAL SOUTH DAKOTA

CITY           SKY/WX    TMP DP  RH WIND       PRES   REMARKS
RAPID CTY ARPT PTCLDY    54  47  77 NW13      30.22R
PIERRE         CLEAR     55  47  74 N14       30.12R
CUSTER         CLEAR     51  46  83 CALM      30.30R
ELLSWORTH AFB  PTCLDY    58  45  61 N13       30.23R
PHILIP         MOCLDY    57  46  66 N12       30.16R
PINE RIDGE     CLEAR     56  54  93 CALM      30.19R
WINNER         FAIR      54  48  80 NW7       30.11R
$$

SDZ004>011-016>023-039-040-141100-
NORTHEAST SOUTH DAKOTA

CITY           SKY/WX    TMP DP  RH WIND       PRES   REMARKS
ABERDEEN       PTCLDY    54  47  77 NW16      30.08R
WATERTOWN      CLOUDY    59  50  72 NW16G22   30.02R
SISSETON         N/A     59  47  64 N20G25    30.01R
$$

SDZ017-020-022-023-036>040-048>070-141100-
SOUTHEAST SOUTH DAKOTA

CITY           SKY/WX    TMP DP  RH WIND       PRES   REMARKS
SIOUX FALLS    PTCLDY    55  47  74 W8        30.01R
HURON          CLEAR     51  47  86 NW8       30.06R
CHAMBERLAIN    CLEAR     54  47  79 NW9       30.10R
MITCHELL       CLEAR     53  46  77 NW10      30.06R
YANKTON        CLEAR     57  48  72 NW9       30.04R
$$

ABBREVIATIONS USED IN REMARKS
   TC - TEMPERATURE IN CELSIUS
  WCI - WIND CHILL INDEX
   HX - HEAT INDEX
  VSB - VISIBILITY



USA.gov is the U.S. government's official web portal to all federal, state and local government web resources and services.